GW5470 Weather Reports


time (UTC)temp
C
wind
direction
speed
KPH
gust
KPH
rain 1hr
cm
rain 24hr
cm
rain mn
cm
humidity
%
barometer
mb
20260505041312 12 215 0.0 0.0 0.00 0.00 0.00 97 1008.5
20260505040809 12 215 0.0 0.0 0.00 0.00 0.00 97 1008.5
20260505040307 12 215 0.0 0.0 0.00 0.00 0.00 97 1008.7
20260505035803 12 215 0.0 0.0 0.00 0.00 0.00 97 1008.5
20260505035259 12 215 0.0 0.0 0.00 0.00 0.00 97 1008.5
20260505034756 12 215 0.0 0.0 0.00 0.00 0.00 97 1008.4
20260505034253 12 215 0.0 0.0 0.00 0.00 0.00 97 1008.4
20260505033750 12 216 0.0 0.0 0.00 0.00 0.00 97 1008.4
20260505033247 12 216 0.0 0.0 0.00 0.00 0.00 96 1008.5
20260505032745 12 215 0.0 0.0 0.00 0.00 0.00 96 1008.4
20260505032241 12 215 0.0 0.0 0.00 0.00 0.00 97 1008.6
20260505031739 12 215 0.0 0.0 0.00 0.00 0.00 97 1008.5
20260505031235 12 215 0.0 0.0 0.00 0.00 0.00 97 1008.4
20260505030732 12 215 0.0 0.0 0.00 0.00 0.00 97 1008.4
20260505030228 12 215 0.0 0.0 0.00 0.00 0.00 97 1008.4
20260505025724 12 215 0.0 0.0 0.00 0.00 0.00 97 1008.3
20260505025222 12 215 0.0 0.0 0.00 0.00 0.00 96 1008.5
20260505024720 11 215 0.0 0.0 0.00 0.00 0.00 96 1008.5
20260505024217 11 216 0.0 0.0 0.00 0.00 0.00 96 1008.3
20260505023714 11 215 0.0 0.0 0.00 0.00 0.00 96 1008.3
20260505023211 11 216 0.0 0.0 0.00 0.00 0.00 96 1008.3
20260505022709 11 216 0.0 0.0 0.00 0.00 0.00 96 1008.4
20260505022205 11 216 0.0 0.0 0.00 0.00 0.00 95 1008.3
20260505021702 11 215 0.0 0.0 0.00 0.00 0.00 95 1008.2
20260505021159 12 216 0.0 0.0 0.00 0.00 0.00 95 1008.2
20260505020655 12 215 0.0 0.0 0.00 0.00 0.00 95 1008.3
20260505020151 12 215 0.0 0.0 0.00 0.00 0.00 95 1008.1
20260505015648 12 215 0.0 0.0 0.00 0.00 0.00 94 1008.0
20260505015144 12 215 0.0 0.0 0.00 0.00 0.00 94 1008.1
20260505014641 12 215 0.0 0.0 0.00 0.00 0.00 94 1008.3
20260505014139 12 215 0.0 0.0 0.00 0.00 0.00 94 1008.2
20260505013636 12 215 0.0 0.0 0.00 0.00 0.00 94 1008.1
20260505013133 12 215 0.0 0.0 0.00 0.00 0.00 94 1008.1
20260505012631 12 215 0.0 0.0 0.00 0.00 0.00 93 1008.1
20260505012128 12 215 0.0 0.0 0.00 0.00 0.00 93 1008.0
20260505011623 13 215 0.0 0.0 0.00 0.00 0.00 93 1008.0
20260505011121 13 215 0.0 0.0 0.00 0.00 0.00 92 1008.0
20260505010616 13 215 0.0 0.0 0.00 0.00 0.00 91 1008.1
20260505010113 13 215 0.0 0.0 0.00 0.00 0.00 90 1008.0
20260505005609 13 215 0.0 0.0 0.00 0.00 0.00 90 1007.9
20260505005107 14 215 0.0 0.0 0.00 0.00 0.00 89 1007.8
20260505004604 14 215 0.0 0.0 0.00 0.00 0.00 88 1007.8
20260505004100 15 215 0.0 0.0 0.00 0.00 0.00 85 1007.9
20260505003558 15 215 0.0 0.0 0.00 0.00 0.00 85 1007.5
20260505003055 15 215 0.0 0.0 0.00 0.00 0.00 86 1007.9
20260505002555 16 215 0.0 0.0 0.00 0.00 0.00 81 1007.8
20260505002054 16 215 0.0 0.0 0.00 0.00 0.00 81 1008.0
20260505001551 16 215 0.0 0.0 0.00 0.00 0.00 78 1007.9
20260505001048 17 215 0.0 0.0 0.00 0.00 0.00 75 1007.8
20260505000546 17 215 0.0 0.0 0.00 0.00 0.00 75 1008.0
20260505000043 17 215 0.0 0.0 0.00 0.00 0.00 73 1007.9
20260504235540 18 215 0.0 0.0 0.00 0.00 0.00 73 1008.1
20260504235037 18 215 0.0 0.0 0.00 0.00 0.00 70 1008.0
20260504234534 18 215 0.0 0.0 0.00 0.00 0.00 68 1008.0
20260504234031 19 215 0.0 0.0 0.00 0.00 0.00 65 1008.0
20260504233526 20 224 0.0 0.0 0.00 0.00 0.00 63 1008.1
20260504233023 20 224 0.0 0.0 0.00 0.00 0.00 60 1008.2
20260504232520 20 223 0.0 0.0 0.00 0.00 0.00 60 1008.3
20260504232018 21 223 0.0 0.0 0.00 0.00 0.00 59 1008.2
20260504231514 21 217 0.0 0.0 0.00 0.00 0.00 57 1008.1
20260504231010 21 221 0.0 0.0 0.00 0.00 0.00 59 1008.3
20260504230507 21 213 1.6 1.6 0.00 0.00 0.00 57 1008.2
20260504230006 21 205 0.0 0.0 0.00 0.00 0.00 56 1008.5
20260504225502 21 221 1.6 3.2 0.00 0.00 0.00 54 1008.5
20260504224959 22 239 3.2 3.2 0.00 0.00 0.00 51 1008.6
20260504224456 22 211 1.6 3.2 0.00 0.00 0.00 52 1008.5
20260504223953 22 215 1.6 1.6 0.00 0.00 0.00 51 1008.5
20260504223449 22 200 1.6 1.6 0.00 0.00 0.00 51 1008.8
20260504222945 22 194 3.2 4.8 0.00 0.00 0.00 51 1008.8
20260504222443 22 217 1.6 1.6 0.00 0.00 0.00 52 1008.8
20260504221940 22 196 3.2 3.2 0.00 0.00 0.00 52 1009.0
20260504221437 22 198 3.2 3.2 0.00 0.00 0.00 50 1008.9
20260504220934 22 206 1.6 1.6 0.00 0.00 0.00 53 1008.7
20260504220430 22 166 9.7 12.9 0.00 0.00 0.00 49 1008.9
20260504215928 23 190 4.8 6.4 0.00 0.00 0.00 48 1009.0
20260504215424 23 224 6.4 6.4 0.00 0.00 0.00 48 1008.8
20260504214921 23 218 3.2 6.4 0.00 0.00 0.00 47 1008.9
20260504214417 23 233 1.6 1.6 0.00 0.00 0.00 49 1009.0
20260504213914 22 212 1.6 1.6 0.00 0.00 0.00 52 1009.1
20260504213410 22 212 0.0 1.6 0.00 0.00 0.00 52 1009.3
20260504212908 21 210 3.2 3.2 0.00 0.00 0.00 52 1009.2
20260504212403 22 172 4.8 6.4 0.00 0.00 0.00 52 1009.5
20260504211901 22 319 8.0 11.3 0.00 0.00 0.00 50 1009.4
20260504211357 22 233 1.6 3.2 0.00 0.00 0.00 53 1009.5
20260504210855 22 202 3.2 3.2 0.00 0.00 0.00 51 1009.4
20260504210351 22 193 3.2 3.2 0.00 0.00 0.00 51 1009.3
20260504205848 22 200 3.2 3.2 0.00 0.00 0.00 52 1009.8
20260504205346 22 351 4.8 6.4 0.00 0.00 0.00 50 1009.8
20260504204844 22 197 4.8 4.8 0.00 0.00 0.00 51 1009.5
20260504204342 21 215 1.6 3.2 0.00 0.00 0.00 51 1009.6
20260504203842 21 206 3.2 6.4 0.00 0.00 0.00 52 1009.6
20260504203338 21 186 1.6 3.2 0.00 0.00 0.00 52 1009.5
20260504202833 21 198 3.2 3.2 0.00 0.00 0.00 52 1009.4
20260504202331 21 206 4.8 6.4 0.00 0.00 0.00 53 1009.3
20260504201827 21 189 4.8 6.4 0.00 0.00 0.00 51 1009.6
20260504201325 21 160 3.2 3.2 0.00 0.00 0.00 51 1009.6
20260504200822 22 204 4.8 4.8 0.00 0.00 0.00 51 1009.8
20260504200319 22 195 1.6 3.2 0.00 0.00 0.00 50 1009.8
20260504195815 22 151 3.2 6.4 0.00 0.00 0.00 49 1009.8
20260504195311 22 185 4.8 6.4 0.00 0.00 0.00 48 1009.8
20260504194808 23 225 3.2 4.8 0.00 0.00 0.00 47 1009.4
20260504194304 22 223 1.6 1.6 0.00 0.00 0.00 48 1009.3
20260504193800 23 212 1.6 1.6 0.00 0.00 0.00 47 1009.2
20260504193258 22 207 3.2 3.2 0.00 0.00 0.00 53 1009.4
20260504192756 22 199 4.8 4.8 0.00 0.00 0.00 52 1009.4
20260504192254 22 204 3.2 3.2 0.00 0.00 0.00 53 1009.6
20260504191752 21 200 4.8 6.4 0.00 0.00 0.00 55 1009.6
20260504191249 20 199 3.2 3.2 0.00 0.00 0.00 56 1009.9
20260504190744 20 203 4.8 4.8 0.00 0.00 0.00 55 1009.9
20260504190241 20 193 3.2 3.2 0.00 0.00 0.00 54 1009.8
20260504185737 20 214 3.2 3.2 0.00 0.00 0.00 55 1009.9
20260504185235 20 211 3.2 3.2 0.00 0.00 0.00 54 1009.9
20260504184731 21 188 4.8 4.8 0.00 0.00 0.00 54 1009.9
20260504184227 21 213 1.6 1.6 0.00 0.00 0.00 53 1010.1
20260504183723 21 160 1.6 1.6 0.00 0.00 0.00 53 1010.3
20260504183220 21 209 3.2 4.8 0.00 0.00 0.00 54 1010.3
20260504182718 21 207 3.2 3.2 0.00 0.00 0.00 53 1010.1
20260504182215 21 204 3.2 4.8 0.00 0.00 0.00 52 1010.3
20260504181712 21 191 1.6 3.2 0.00 0.00 0.00 49 1010.2
20260504181210 21 203 3.2 4.8 0.00 0.00 0.00 50 1010.2
20260504180709 21 219 6.4 9.7 0.00 0.00 0.00 49 1010.1
20260504180207 21 216 3.2 3.2 0.00 0.00 0.00 50 1010.2
20260504175704 22 194 8.0 11.3 0.00 0.00 0.00 48 1010.1
20260504175200 22 236 1.6 1.6 0.00 0.00 0.00 53 1010.3
20260504174658 21 222 3.2 4.8 0.00 0.00 0.00 49 1010.2
20260504174155 22 174 9.7 14.5 0.00 0.00 0.00 48 1010.2
20260504173652 21 241 6.4 9.7 0.00 0.00 0.00 50 1010.3
20260504173149 21 214 3.2 3.2 0.00 0.00 0.00 53 1010.3
20260504172646 21 198 4.8 6.4 0.00 0.00 0.00 51 1010.3
20260504172142 21 179 8.0 11.3 0.00 0.00 0.00 51 1010.1
20260504171639 21 157 9.7 11.3 0.00 0.00 0.00 52 1010.4
20260504171136 21 203 4.8 4.8 0.00 0.00 0.00 53 1010.4
20260504170632 21 197 3.2 4.8 0.00 0.00 0.00 52 1010.4
20260504170130 21 216 3.2 3.2 0.00 0.00 0.00 50 1010.4
20260504151021 17 176 4.8 9.7 0.00 0.00 0.00 57 1011.9
20260504150519 17 227 4.8 6.4 0.00 0.00 0.00 57 1011.8
20260504140945 16 250 3.2 4.8 0.00 0.00 0.00 57 1012.7
20260504140441 16 187 3.2 4.8 0.00 0.00 0.00 60 1012.4
20260504130406 14 197 3.2 4.8 0.00 0.00 0.00 59 1012.4
20260504110253 4 215 0.0 0.0 0.00 0.00 0.00 97 1012.3
20260504100217 5 215 0.0 0.0 0.00 0.00 0.00 96 1012.5
20260504090139 6 215 0.0 0.0 0.00 0.00 0.00 93 1013.1
20260504081609 7 215 0.0 0.0 0.00 0.00 0.00 89 1013.1
20260504081105 7 215 0.0 0.0 0.00 0.00 0.00 89 1013.2
20260504080602 7 215 0.0 0.0 0.00 0.00 0.00 89 1013.3
20260504050415 8 215 0.0 0.0 0.00 0.00 0.00 81 1015.0
20260504045912 8 215 0.0 0.0 0.00 0.00 0.00 82 1015.1
20260504045408 8 215 0.0 0.0 0.00 0.00 0.00 81 1015.1
20260504044904 8 215 0.0 0.0 0.00 0.00 0.00 81 1015.0
20260504044402 8 215 0.0 0.0 0.00 0.00 0.00 81 1014.8
20260504043859 8 215 0.0 0.0 0.00 0.00 0.00 81 1015.0
20260504043356 8 215 0.0 0.0 0.00 0.00 0.00 80 1014.9
20260504042853 8 215 0.0 0.0 0.00 0.00 0.00 80 1014.8
20260504042349 8 215 0.0 0.0 0.00 0.00 0.00 78 1014.9